User: anonymous   Login
Location: Unspecified
(0.0000°N, 0.0000°E)
Time: 07:48:55
(UTC+00:00)
Language:

ESSA 2 - Orbit

View from above orbital plane
View from above orbital plane
View from above satellite
View from above satellite

Ground track
Ground track

The orbit data is extracted from the following two-line orbital elements,

1  2091U 66016A   18112.78829380 -.00000022 +00000-0 +10878-3 0  9991
2  2091 101.1259 057.7686 0038635 183.2590 206.1100 12.69373676415847
Epoch (UTC): 22 April 2018 18:55:08
Eccentricity: 0.0038635
inclination: 101.1259°
perigee height: 1354 km
apogee height: 1414 km
right ascension of ascending node: 57.7686°
argument of perigee: 183.2590°
revolutions per day: 12.69373676
mean anomaly at epoch: 206.1100°
orbit number at epoch: 41584

The dashed part of the orbit path shows where the satellite is in the earth's shadow,  

DLR